Location: Ostrava
(49.8330°N, 18.2830°E)
Time: 08:13:22
(UTC+01:00)

Lacrosse 5 - Visible Passes

Search period start: 18 December 2014 00:00
Search period end: 28 December 2014 00:00
Orbit: 709 x 719 km, 57.0° (Epoch: 16 December)

Date Brightness Start Highest point End Pass type
(mag) Time Alt. Az. Time Alt. Az. Time Alt. Az.
18 Dec 2.2 17:14:27 10° WSW 17:19:26 57° NNW 17:22:48 20° NE visible
18 Dec 3.2 18:58:22 10° WNW 19:01:53 32° NNW 19:01:53 32° NNW visible
19 Dec 2.0 16:19:25 10° WSW 16:24:29 80° NNW 16:29:34 10° NE visible
19 Dec 2.7 18:03:08 10° W 18:07:53 39° N 18:09:05 34° NNE visible
19 Dec 4.3 19:46:49 10° WNW 19:48:10 18° NW 19:48:10 18° NW visible
20 Dec 2.5 17:07:54 10° W 17:12:46 46° NNW 17:16:17 18° NE visible
20 Dec 3.1 18:51:47 10° WNW 18:55:22 33° NNW 18:55:22 33° NNW visible
21 Dec 2.7 17:56:38 10° WNW 18:01:19 37° N 18:02:34 32° NNE visible
21 Dec 4.1 19:40:04 10° NW 19:41:39 20° NW 19:41:39 20° NW visible
22 Dec 2.6 17:01:24 10° W 17:06:10 40° N 17:09:47 16° NE visible
22 Dec 2.9 18:45:07 10° WNW 18:48:52 36° NNW 18:48:52 36° NNW visible
23 Dec 2.7 17:50:04 10° WNW 17:54:46 37° N 17:56:06 31° NE visible
23 Dec 3.9 19:33:16 10° NW 19:35:11 23° NW 19:35:11 23° NW visible
24 Dec 2.7 16:54:54 10° WNW 16:59:35 37° N 17:03:22 15° ENE visible
24 Dec 2.5 18:38:23 10° NW 18:42:27 43° N 18:42:27 43° N visible
24 Dec 4.9 20:21:21 10° WNW 20:21:33 11° WNW 20:21:33 11° WNW visible
25 Dec 2.5 17:43:25 10° WNW 17:48:11 40° N 17:49:45 31° NE visible
25 Dec 3.6 19:26:27 10° WNW 19:28:51 28° NW 19:28:51 28° NW visible
26 Dec 2.6 16:48:20 10° WNW 16:53:02 37° N 16:57:06 13° ENE visible
26 Dec 2.0 18:31:35 10° NW 18:36:12 58° N 18:36:12 58° N visible
26 Dec 4.7 20:14:38 10° WNW 20:15:18 14° WNW 20:15:18 14° WNW visible
27 Dec 2.2 17:36:41 10° NW 17:41:34 46° NNE 17:43:38 30° ENE visible
27 Dec 3.2 19:19:39 10° WNW 19:22:44 37° WNW 19:22:44 37° WNW visible
